• In United Kingdom
  • List of Countries
  • For 7 days
  • Water Temperature
  • Satellite Maps
  • Weather Map
  • Weather Widgets
  • user-avatar
    Login

    Hourly Weather Ashtarak

    Today, 18 June, Monday

    Time Temperature Precipitation Wind Pressure Humidity
    00:00 +18°C° 0.3 mm 1 mps 654 mmHg 58%
    01:00 +16°C° 0.1 mm 1 mps 654 mmHg 59%
    02:00 +16°C° 0.1 mm 1 mps 653 mmHg 59%
    03:00 +16°C° 0 mm 1 mps 653 mmHg 59%
    04:00 +18°C° 0 mm 1 mps 653 mmHg 59%
    05:00 +19°C° 0 mm 1 mps 653 mmHg 59%
    06:00 +19°C° 0 mm 1 mps 654 mmHg 58%
    07:00 +21°C° 0 mm 1 mps 654 mmHg 53%
    08:00 +23°C° 0 mm 2 mps 654 mmHg 48%
    09:00 +24°C° 0 mm 2 mps 654 mmHg 43%
    10:00 +25°C° 0 mm 2 mps 654 mmHg 40%
    11:00 +26°C° 0 mm 3 mps 654 mmHg 38%
    12:00 +27°C° 0 mm 3 mps 654 mmHg 36%
    13:00 +27°C° 0.1 mm 3 mps 654 mmHg 35%
    14:00 +28°C° 0.1 mm 3 mps 654 mmHg 34%
    15:00 +28°C° 0.1 mm 3 mps 654 mmHg 34%
    16:00 +27°C° 0.4 mm 3 mps 654 mmHg 38%
    17:00 +26°C° 0.4 mm 2 mps 654 mmHg 42%
    18:00 +26°C° 0.4 mm 2 mps 654 mmHg 46%
    19:00 +24°C° 0.4 mm 2 mps 654 mmHg 52%
    20:00 +20°C° 0.4 mm 2 mps 654 mmHg 57%
    21:00 +18°C° 0.4 mm 2 mps 653 mmHg 62%
    22:00 +18°C° 0.4 mm 2 mps 654 mmHg 64%
    23:00 +17°C° 0.4 mm 2 mps 654 mmHg 67%

    Tomorrow, 19 June, Tuesday

    Time Temperature Precipitation Wind Pressure Humidity
    00:00 +17°C° 0.4 mm 2 mps 654 mmHg 69%
    01:00 +16°C° 0.2 mm 2 mps 654 mmHg 70%
    02:00 +16°C° 0.2 mm 2 mps 654 mmHg 72%
    03:00 +15°C° 0.2 mm 2 mps 654 mmHg 73%
    04:00 +16°C° 0.1 mm 2 mps 655 mmHg 72%
    05:00 +18°C° 0.1 mm 1 mps 655 mmHg 70%
    06:00 +19°C° 0.1 mm 1 mps 655 mmHg 68%
    07:00 +20°C° 0 mm 1 mps 656 mmHg 62%
    08:00 +22°C° 0 mm 1 mps 656 mmHg 55%
    09:00 +24°C° 0 mm 1 mps 657 mmHg 49%
    10:00 +25°C° 0.2 mm 2 mps 657 mmHg 47%
    11:00 +26°C° 0.2 mm 2 mps 657 mmHg 44%
    12:00 +27°C° 0.2 mm 2 mps 657 mmHg 42%
    13:00 +27°C° 0.4 mm 2 mps 657 mmHg 41%
    14:00 +27°C° 0.4 mm 2 mps 657 mmHg 41%
    15:00 +28°C° 0.4 mm 2 mps 657 mmHg 40%
    16:00 +27°C° 0.7 mm 2 mps 657 mmHg 44%
    17:00 +26°C° 0.7 mm 2 mps 656 mmHg 48%
    18:00 +25°C° 0.7 mm 2 mps 656 mmHg 52%
    19:00 +23°C° 0.6 mm 2 mps 656 mmHg 56%
    20:00 +21°C° 0.6 mm 2 mps 656 mmHg 61%
    21:00 +19°C° 0.6 mm 2 mps 656 mmHg 66%
    22:00 +18°C° 0.4 mm 2 mps 656 mmHg 68%
    23:00 +18°C° 0.4 mm 2 mps 656 mmHg 70%

    Day after tomorrow, 20 June, Wednesday

    Time Temperature Precipitation Wind Pressure Humidity
    00:00 +17°C° 0.4 mm 2 mps 657 mmHg 73%
    01:00 +17°C° 0.3 mm 2 mps 656 mmHg 74%
    02:00 +16°C° 0.3 mm 2 mps 656 mmHg 75%
    03:00 +16°C° 0.3 mm 2 mps 656 mmHg 76%
    04:00 +17°C° 0.3 mm 2 mps 657 mmHg 74%
    05:00 +17°C° 0.3 mm 2 mps 657 mmHg 72%
    06:00 +18°C° 0.3 mm 2 mps 657 mmHg 71%
    07:00 +20°C° 0.2 mm 2 mps 658 mmHg 64%
    08:00 +23°C° 0.2 mm 2 mps 658 mmHg 57%
    09:00 +24°C° 0.2 mm 2 mps 658 mmHg 50%
    10:00 +26°C° 0.4 mm 2 mps 658 mmHg 47%
    11:00 +27°C° 0.4 mm 2 mps 658 mmHg 44%
    12:00 +28°C° 0.4 mm 2 mps 658 mmHg 41%
    13:00 +28°C° 0.4 mm 2 mps 658 mmHg 41%
    14:00 +28°C° 0.4 mm 2 mps 658 mmHg 41%
    15:00 +28°C° 0.4 mm 3 mps 658 mmHg 40%
    16:00 +28°C° 0.7 mm 3 mps 658 mmHg 44%
    17:00 +27°C° 0.7 mm 3 mps 657 mmHg 47%
    18:00 +26°C° 0.7 mm 3 mps 657 mmHg 51%
    19:00 +24°C° 0.4 mm 3 mps 657 mmHg 56%
    20:00 +21°C° 0.4 mm 3 mps 657 mmHg 62%
    21:00 +19°C° 0.4 mm 3 mps 657 mmHg 68%
    22:00 +18°C° 0.3 mm 3 mps 658 mmHg 69%
    23:00 +18°C° 0.3 mm 3 mps 658 mmHg 71%

    21 June, Thursday

    Time Temperature Precipitation Wind Pressure Humidity
    00:00 +17°C° 0.3 mm 3 mps 658 mmHg 73%
    01:00 +17°C° 0.2 mm 2 mps 658 mmHg 74%
    02:00 +16°C° 0.2 mm 2 mps 657 mmHg 75%
    03:00 +16°C° 0.2 mm 2 mps 657 mmHg 75%
    04:00 +17°C° 0.1 mm 2 mps 658 mmHg 74%
    05:00 +18°C° 0.1 mm 2 mps 658 mmHg 72%
    06:00 +18°C° 0.1 mm 2 mps 658 mmHg 70%
    07:00 +20°C° 0.1 mm 2 mps 658 mmHg 63%
    08:00 +23°C° 0.1 mm 2 mps 659 mmHg 56%
    09:00 +25°C° 0.1 mm 1 mps 659 mmHg 49%
    10:00 +26°C° 0.2 mm 2 mps 659 mmHg 46%
    11:00 +27°C° 0.2 mm 2 mps 659 mmHg 43%
    12:00 +28°C° 0.2 mm 2 mps 659 mmHg 40%
    13:00 +29°C° 0.2 mm 2 mps 658 mmHg 39%
    14:00 +29°C° 0.2 mm 2 mps 658 mmHg 38%
    15:00 +29°C° 0.2 mm 2 mps 658 mmHg 38%
    16:00 +29°C° 0.3 mm 2 mps 657 mmHg 41%
    17:00 +28°C° 0.3 mm 2 mps 657 mmHg 44%
    18:00 +27°C° 0.3 mm 2 mps 657 mmHg 48%
    19:00 +25°C° 0.2 mm 2 mps 657 mmHg 54%
    20:00 +22°C° 0.2 mm 3 mps 657 mmHg 60%
    21:00 +20°C° 0.2 mm 3 mps 657 mmHg 66%
    22:00 +19°C° 0 mm 3 mps 657 mmHg 67%
    23:00 +19°C° 0 mm 2 mps 657 mmHg 68%

    22 June, Friday

    Time Temperature Precipitation Wind Pressure Humidity
    00:00 +19°C° 0 mm 2 mps 657 mmHg 70%
    01:00 +18°C° 0 mm 2 mps 656 mmHg 70%
    02:00 +18°C° 0 mm 2 mps 656 mmHg 71%
    03:00 +17°C° 0 mm 2 mps 656 mmHg 71%
    04:00 +18°C° 0 mm 2 mps 656 mmHg 70%
    05:00 +19°C° 0 mm 2 mps 656 mmHg 69%
    06:00 +19°C° 0 mm 2 mps 657 mmHg 67%
    07:00 +21°C° 0 mm 2 mps 657 mmHg 60%
    08:00 +24°C° 0 mm 2 mps 657 mmHg 53%
    09:00 +26°C° 0 mm 2 mps 657 mmHg 46%
    10:00 +27°C° 0.1 mm 2 mps 657 mmHg 43%
    11:00 +28°C° 0.1 mm 2 mps 657 mmHg 40%
    12:00 +29°C° 0.1 mm 2 mps 657 mmHg 37%
    13:00 +29°C° 0.3 mm 2 mps 656 mmHg 37%
    14:00 +30°C° 0.3 mm 2 mps 656 mmHg 36%
    15:00 +30°C° 0.3 mm 2 mps 656 mmHg 36%
    16:00 +29°C° 0.3 mm 2 mps 656 mmHg 39%
    17:00 +28°C° 0.3 mm 2 mps 655 mmHg 43%
    18:00 +28°C° 0.3 mm 2 mps 655 mmHg 46%
    19:00 +26°C° 0.3 mm 2 mps 655 mmHg 52%
    20:00 +24°C° 0.3 mm 3 mps 655 mmHg 58%
    21:00 +21°C° 0.3 mm 3 mps 655 mmHg 63%
    22:00 +20°C° 0.1 mm 3 mps 655 mmHg 65%
    23:00 +19°C° 0.1 mm 2 mps 655 mmHg 66%

    23 June, Saturday

    Time Temperature Precipitation Wind Pressure Humidity
    00:00 +19°C° 0.1 mm 2 mps 655 mmHg 67%
    01:00 +18°C° 0.1 mm 2 mps 655 mmHg 67%
    02:00 +18°C° 0.1 mm 2 mps 655 mmHg 68%
    03:00 +18°C° 0.1 mm 2 mps 655 mmHg 69%
    04:00 +18°C° 0 mm 2 mps 655 mmHg 67%
    05:00 +19°C° 0 mm 2 mps 656 mmHg 66%
    06:00 +21°C° 0 mm 1 mps 656 mmHg 65%
    07:00 +23°C° 0.1 mm 1 mps 656 mmHg 59%
    08:00 +24°C° 0.1 mm 1 mps 657 mmHg 52%
    09:00 +26°C° 0.1 mm 1 mps 657 mmHg 45%
    10:00 +27°C° 0.2 mm 2 mps 657 mmHg 43%
    11:00 +28°C° 0.2 mm 2 mps 657 mmHg 40%
    12:00 +30°C° 0.2 mm 2 mps 657 mmHg 37%
    13:00 +30°C° 0.2 mm 2 mps 657 mmHg 36%
    14:00 +30°C° 0.2 mm 2 mps 657 mmHg 36%
    15:00 +30°C° 0.2 mm 2 mps 656 mmHg 35%
    16:00 +30°C° 0.3 mm 2 mps 656 mmHg 38%
    17:00 +29°C° 0.3 mm 2 mps 656 mmHg 42%
    18:00 +28°C° 0.3 mm 2 mps 657 mmHg 46%
    19:00 +26°C° 0.2 mm 2 mps 657 mmHg 52%
    20:00 +24°C° 0.2 mm 3 mps 657 mmHg 57%
    21:00 +21°C° 0.2 mm 3 mps 657 mmHg 63%
    22:00 +20°C° 0.1 mm 3 mps 657 mmHg 64%
    23:00 +20°C° 0.1 mm 2 mps 657 mmHg 65%
    Show more